Location: Unspecified
(0.0000°N, 0.0000°E)
Time: 14:43:14
(UTC+00:00)

Explorer 7 - All Passes

Search period start: 01 August 2021 00:00
Search period end: 11 August 2021 00:00
Orbit: 484 x 676 km, 50.3° (Epoch: 01 August)

Date Brightness Start Highest point End Pass type
(mag) Time Alt. Az. Time Alt. Az. Time Alt. Az.
01 Aug - 01:45:49 10° SSW 01:49:40 68° SE 01:53:22 10° NE night (unlit)
01 Aug - 13:46:37 10° NW 13:51:22 81° SW 13:56:16 10° SSE daylight
02 Aug - 01:50:11 10° SW 01:53:55 48° NW 01:57:32 10° NNE night (unlit)
02 Aug - 12:12:27 10° NNE 12:15:16 16° NE 12:18:08 10° E daylight
02 Aug - 13:51:11 10° WNW 13:55:37 40° SW 14:00:13 10° SSE daylight
03 Aug - 00:15:19 10° S 00:17:54 17° SE 00:20:25 10° E night (unlit)
03 Aug - 01:55:10 10° WSW 01:58:10 21° NW 02:01:05 10° N night (unlit)
03 Aug - 12:15:27 10° N 12:19:31 30° NE 12:23:44 10° ESE daylight
03 Aug - 13:56:20 10° W 13:59:56 21° SW 14:03:37 10° S daylight
04 Aug - 00:18:34 10° SSW 00:22:13 35° SE 00:25:43 10° ENE night (unlit)
04 Aug - 12:19:11 10° NNW 12:23:45 59° NE 12:28:32 10° SE daylight
04 Aug - 14:03:01 10° WSW 14:04:18 11° SW 14:05:35 10° SW daylight
05 Aug - 00:22:31 10° SW 00:26:30 85° SE 00:30:17 10° NE night (unlit)
05 Aug - 12:23:24 10° NW 12:28:01 68° SW 12:32:50 10° SSE daylight
06 Aug - 00:27:01 10° SW 00:30:44 40° NW 00:34:19 10° NNE night (unlit)
06 Aug - 10:48:52 10° N 10:51:56 18° NE 10:55:07 10° E daylight
06 Aug - 12:28:05 10° WNW 12:32:18 34° SW 12:36:40 10° SSE daylight
06 Aug - 22:51:38 10° S 22:54:43 21° SE 22:57:41 10° E night (unlit)
07 Aug - 00:32:11 10° W 00:34:59 19° NW 00:37:41 10° N night (unlit)
07 Aug - 10:52:05 10° NNW 10:56:11 34° NE 11:00:29 10° ESE daylight
07 Aug - 12:33:27 10° W 12:36:38 18° SW 12:39:53 10° S daylight
07 Aug - 22:55:08 10° SSW 22:59:02 44° SE 23:02:45 10° NE night (unlit)
08 Aug - 10:55:56 10° NNW 11:00:25 70° NE 11:05:10 10° SE daylight
08 Aug - 22:59:13 10° SW 23:03:18 79° NW 23:07:10 10° NNE night (unlit)
09 Aug - 11:00:14 10° NW 11:04:41 57° SW 11:09:22 10° SSE daylight
09 Aug - 21:25:21 10° SSE 21:27:10 12° SE 21:28:56 10° ESE night (unlit)
09 Aug - 23:03:50 10° WSW 23:07:32 34° NW 23:11:04 10° NNE night (unlit)
10 Aug - 09:25:23 10° N 09:28:38 20° NE 09:32:00 10° E daylight
10 Aug - 11:05:03 10° WNW 11:08:58 28° SW 11:13:04 10° S daylight
10 Aug - 21:28:00 10° S 21:31:31 25° SE 21:34:51 10° ENE night (unlit)
10 Aug - 23:09:13 10° W 23:11:46 16° NW 23:14:15 10° NNW night (unlit)
